AirNav   Everest Fuels
 
 1432 users online  

FD22 Melrose Landing Airport
Melrose, Florida, USA

GOING TO MELROSE?


FAA INFORMATION EFFECTIVE 21 MAY 2020

Location

FAA Identifier: FD22
Lat/Long: 29-40-00.8840N 081-57-18.3390W
29-40.014733N 081-57.305650W
29.6669122,-81.9550942
(estimated)
Elevation: 159 ft. / 48 m (estimated)
Variation: 03W (1985)
From city: 7 miles SE of MELROSE, FL
Time zone: UTC -4 (UTC -5 during Standard Time)
Zip code: 32640

Airport Operations

Airport use: Private use. Permission required prior to landing
Activation date: 10/1984
Control tower: no
ARTCC: JACKSONVILLE CENTER
FSS: GAINESVILLE FLIGHT SERVICE STATION
Attendance: CONTINUOUS
Wind indicator: yes
Segmented circle: yes
Lights: DUSK-0000
Beacon: white-green (lighted land airport)
DUSK-0000
Landing fee: yes

Airport Communications

WX AWOS-3 at 42J (12 nm NW): 124.275 (352-473-8273)
WX AWOS-3 at 28J (14 nm E): 119.925 (386-312-2212)
WX ASOS at GNV (17 nm W): PHONE 352-335-8672

Nearby radio navigation aids

VOR radial/distance  VOR name  Freq  Var
GNVr099/16.6GATORS VORTAC116.2004W
OCFr026/32.6OCALA VORTAC113.7000E
VQQr189/(32.9)CECIL VOR117.9003W
SGJr248/36.9ST AUGUSTINE VOR/DME109.4006W

 
NDB name  Hdg/Dist  Freq  Var  ID
WYNDS095/11.326904WGN --. -.
REYNOLDS228/23.733807WRYD .-. -.-- -..

Airport Services

Runway Information

Runway 5/23

Dimensions: 4600 x 50 ft. / 1402 x 15 m
NE 3400' ASPH; SW 1200' TURF.
Surface: asphalt/turf, in good condition
Runway edge lights: low intensity
Runway edge markings: 05/23 CNTRLN STRIPE NSTD.
RUNWAY 5  RUNWAY 23
Traffic pattern: rightleft
Displaced threshold: no480 ft.

Airport Ownership and Management from official FAA records

Ownership: Privately-owned
Owner: MELROSE LANDING APT PROPERTY OWNERS
267 MELROSE LANDING DR
HAWTHORNE, FL 32640
Phone 352-475-2870
Manager: DAVID TRUBEY
267 MELROSE LANDING DR
HAWTHORNE, FL 32640
Phone 352-475-2870

Airport Operational Statistics

Aircraft based on the field: 25
Single engine airplanes: 24
Jet airplanes: 1
    

Additional Remarks

FOR CD CTC JACKSONVILLE APCH AT 904-741-0284.

Instrument Procedures

There are no published instrument procedures at FD22.

Some nearby airports with instrument procedures:

42J - Keystone Airpark (12 nm NW)
28J - Palatka Municipal Airport - Lt. Kay Larkin Field (14 nm E)
KGNV - Gainesville Regional Airport (17 nm W)
X60 - Williston Municipal Airport (33 nm SW)
KOCF - Ocala International Airport-Jim Taylor Field (33 nm SW)
 
Loc | Ops | Rwys | IFR | FBO | Links
Com | Nav | Svcs | Stats | Notes
Area around FD22 (Melrose Landing Airport)
 
Road maps at: MapQuest Bing Google
 
Aerial photo
WARNING: Photo may not be current or correct
Aerial photo of FD22 (Melrose Landing Airport)
Do you have a better or more recent aerial photo of Melrose Landing Airport that you would like to share? If so, please send us your photo.

 
Sectional chart

 
Airport distance calculator
Flying to Melrose Landing Airport? Find the distance to fly.

From to FD22

Sunrise and sunset
Times for 04-Jun-2020
 Local
(UTC-4)
 Zulu
(UTC)
Morning civil twilight06:0110:01
Sunrise06:2810:28
Sunset20:2400:24
Evening civil twilight20:5100:51

Current date and time
Zulu (UTC)  04-Jun-2020 18:18:24
Local (UTC-4)  04-Jun-2020 14:18:24
 
METAR
K42J 
12nm NW 
041755Z AUTO VRB05KT 9SM FEW033 FEW055 29/21 A2998 RMK A01 TSNO
K28J 
14nm E 
041755Z AUTO 09005KT 1SM +RA BKN003 BKN010 OVC027 21/20 A3001 RMK AO2 P0055
KGNV 
17nm W 
041753Z 02005KT 10SM SCT022 BKN033 OVC042 27/21 A3001 RMK AO2 SLP159 60002 T02670211 10283 20211 58012
TAF
KGNV 
17nm W 
041722Z 0418/0518 23004KT P6SM SCT015 BKN035 OVC045 FM041900 16007KT P6SM VCSH SCT025 OVC045 TEMPO 0420/0424 4SM TSRA BR BKN017CB FM050000 00000KT 6SM SHRA BR SCT014 OVC028 FM050500 00000KT P6SM VCSH SCT030 BKN040 PROB30 0505/0511 5SM -RA OVC015 FM051200 19004KT P6SM VCSH OVC007 FM051500 21007KT P6SM SCT015 OVC025
NOTAMs
Click for the latest NOTAMs
NOTAMs are issued by the DoD/FAA and will open in a separate window not controlled by AirNav.

 

 
 

Would you like to see your business listed on this page?

 If your business provides an interesting product or service to pilots, flight crews, aircraft, or users of the Melrose Landing Airport, you should consider listing it here.  To start the listing process, click on the button below
 
Add a business
 

Other Pages about Melrose Landing Airport

www.melroselanding.org
www.melroselanding.com
 
Update a link
 
Copyright © AirNav, LLC. All rights reserved. Privacy Policy  Contact